Location: Bridalveil Moraine
(37.7171°N, 119.6568°W)
Time: 01:01:05
(UTC+00:00)

Tiangong - Pass Details

Date: 31 January 2026
Orbit: 386 x 392 km, 41.5° (Epoch: 10 February)

Event Time Altitude Azimuth Distance (km) Brightness Sun altitude
Exits shadow 12:56:26 18° 141° (SE) 1,034 0.4 -25.3°
Drops below altitude 10° 12:57:27 10° 134° (SE) 1,422 1.3 -25.0°
Sets 12:59:35 0° 127° (SE) 2,276 2.6 -24.6°
